TIANLIAN 1-04 1 41869U 16072A 21061.78865141 .00000022 00000-0 00000+0 0 9997 2 41869 0.0775 256.2851 0018162 190.8890 174.2052 1.00273528 15927 CZ-3C R/B 1 41870U 16072B 21061.34945399 .00003335 00000-0 39101-3 0 9993 2 41870 16.9107 113.6470 5309634 3.3947 359.1799 5.13831655 60459